Location: Eferding
(48.3167°N, 14.0167°E)
Time: 21:31:35
(UTC+00:00)

TSX-5 - Pass Details

Date: 12 November 2019
Orbit: 401 x 1335 km, 68.9° (Epoch: 10 December)

Event Time Altitude Azimuth Distance (km) Brightness Sun altitude
Rises 16:28:31 0° 203° (SSW) 2,523 7.8 -10.0°
Reaches altitude 10° 16:30:25 10° 201° (SSW) 1,734 6.9 -10.3°
Maximum altitude 16:34:13 72° 117° (ESE) 634 4.0 -10.9°
Drops below altitude 10° 16:39:08 10° 34° (NE) 2,231 6.5 -11.7°
Enters shadow 16:39:52 - 34° (NNE) 2,523 6.7 -11.8°
